Year,Month,Day,Hour,Minute,Value (Times are PST for temperature in C)
2013,10,24,00,00,7.20
2013,10,24,00,01,7.20
2013,10,24,00,02,7.10
2013,10,24,00,03,7.10
2013,10,24,00,04,7.10
2013,10,24,00,05,7.00
2013,10,24,00,06,7.00
2013,10,24,00,07,6.90
2013,10,24,00,08,6.90
2013,10,24,00,09,6.80
2013,10,24,00,10,6.80
2013,10,24,00,11,6.70
2013,10,24,00,12,6.70
2013,10,24,00,13,6.70
2013,10,24,00,14,6.70
2013,10,24,00,15,6.60
2013,10,24,00,16,6.60
2013,10,24,00,17,6.60
2013,10,24,00,18,6.60
2013,10,24,00,19,6.50
2013,10,24,00,20,6.50
2013,10,24,00,21,6.50
2013,10,24,00,22,6.40
2013,10,24,00,23,6.40
2013,10,24,00,24,6.40
2013,10,24,00,25,6.40
2013,10,24,00,26,6.40
2013,10,24,00,27,6.30
2013,10,24,00,28,6.30
2013,10,24,00,29,6.30
2013,10,24,00,30,6.30
2013,10,24,00,31,6.30
2013,10,24,00,32,6.30
2013,10,24,00,33,6.30
2013,10,24,00,34,6.30
2013,10,24,00,35,6.30
2013,10,24,00,36,6.30
2013,10,24,00,37,6.20
2013,10,24,00,38,6.20
2013,10,24,00,39,6.20
2013,10,24,00,40,6.30
2013,10,24,00,41,6.30
2013,10,24,00,42,6.30
2013,10,24,00,43,6.30
2013,10,24,00,44,6.30
2013,10,24,00,45,6.20
2013,10,24,00,46,6.20
2013,10,24,00,47,6.20
2013,10,24,00,48,6.10
2013,10,24,00,49,6.10
2013,10,24,00,50,6.10
2013,10,24,00,51,6.00
2013,10,24,00,52,6.00
2013,10,24,00,53,6.00
2013,10,24,00,54,5.90
2013,10,24,00,55,5.90
2013,10,24,00,56,5.90
2013,10,24,00,57,5.90
2013,10,24,00,58,5.90
2013,10,24,00,59,5.90
2013,10,24,01,00,5.90
2013,10,24,01,01,5.90
2013,10,24,01,02,5.90
2013,10,24,01,03,5.90
2013,10,24,01,04,5.90
2013,10,24,01,05,5.90
2013,10,24,01,06,5.90
2013,10,24,01,07,5.90
2013,10,24,01,08,5.90
2013,10,24,01,09,5.90
2013,10,24,01,10,5.90
2013,10,24,01,11,5.90
2013,10,24,01,12,5.90
2013,10,24,01,13,5.80
2013,10,24,01,14,5.80
2013,10,24,01,15,5.80
2013,10,24,01,16,5.80
2013,10,24,01,17,5.80
2013,10,24,01,18,5.80
2013,10,24,01,19,5.80
2013,10,24,01,20,5.80
2013,10,24,01,21,5.70
2013,10,24,01,22,5.70
2013,10,24,01,23,5.70
2013,10,24,01,24,5.70
2013,10,24,01,25,5.70
2013,10,24,01,26,5.70
2013,10,24,01,27,5.80
2013,10,24,01,28,5.80
2013,10,24,01,29,5.80
2013,10,24,01,30,5.80
2013,10,24,01,31,5.80
2013,10,24,01,32,5.80
2013,10,24,01,33,5.80
2013,10,24,01,34,5.80
2013,10,24,01,35,5.80
2013,10,24,01,36,5.80
2013,10,24,01,37,5.80
2013,10,24,01,38,5.70
2013,10,24,01,39,5.70
2013,10,24,01,40,5.70
2013,10,24,01,41,5.60
2013,10,24,01,42,5.60
2013,10,24,01,43,5.60
2013,10,24,01,44,5.60
2013,10,24,01,45,5.60
2013,10,24,01,46,5.50
2013,10,24,01,47,5.50
2013,10,24,01,48,5.50
2013,10,24,01,49,5.50
2013,10,24,01,50,5.40
2013,10,24,01,51,5.40
2013,10,24,01,52,5.40
2013,10,24,01,53,5.40
2013,10,24,01,54,5.40
2013,10,24,01,55,5.40
2013,10,24,01,56,5.40
2013,10,24,01,57,5.30
2013,10,24,01,58,5.30
2013,10,24,01,59,5.30
2013,10,24,02,00,5.30
2013,10,24,02,01,5.30
2013,10,24,02,02,5.30
2013,10,24,02,03,5.30
2013,10,24,02,04,5.30
2013,10,24,02,05,5.30
2013,10,24,02,06,5.30
2013,10,24,02,07,5.30
2013,10,24,02,08,5.30
2013,10,24,02,09,5.20
2013,10,24,02,10,5.20
2013,10,24,02,11,5.10
2013,10,24,02,12,5.10
2013,10,24,02,13,5.10
2013,10,24,02,14,5.10
2013,10,24,02,15,5.10
2013,10,24,02,16,5.10
2013,10,24,02,17,5.10
2013,10,24,02,18,5.10
2013,10,24,02,19,5.10
2013,10,24,02,20,5.10
2013,10,24,02,21,5.10
2013,10,24,02,22,5.10
2013,10,24,02,23,5.10
2013,10,24,02,24,5.10
2013,10,24,02,25,5.10
2013,10,24,02,26,5.10
2013,10,24,02,27,5.10
2013,10,24,02,28,5.10
2013,10,24,02,29,5.10
2013,10,24,02,30,5.10
2013,10,24,02,31,5.10
2013,10,24,02,32,5.10
2013,10,24,02,33,5.00
2013,10,24,02,34,5.00
2013,10,24,02,35,5.00
2013,10,24,02,36,5.00
2013,10,24,02,37,5.00
2013,10,24,02,38,5.00
2013,10,24,02,39,5.00
2013,10,24,02,40,5.00
2013,10,24,02,41,5.00
2013,10,24,02,42,5.00
2013,10,24,02,43,4.90
2013,10,24,02,44,4.90
2013,10,24,02,45,4.90
2013,10,24,02,46,4.90
2013,10,24,02,47,4.90
2013,10,24,02,48,4.90
2013,10,24,02,49,4.90
2013,10,24,02,50,4.90
2013,10,24,02,51,4.90
2013,10,24,02,52,4.90
2013,10,24,02,53,4.90
2013,10,24,02,54,4.80
2013,10,24,02,55,4.80
2013,10,24,02,56,4.80
2013,10,24,02,57,4.80
2013,10,24,02,58,4.80
2013,10,24,02,59,4.70
2013,10,24,03,00,4.70
2013,10,24,03,01,4.70
2013,10,24,03,02,4.70
2013,10,24,03,03,4.70
2013,10,24,03,04,4.70
2013,10,24,03,05,4.70
2013,10,24,03,06,4.70
2013,10,24,03,07,4.70
2013,10,24,03,08,4.70
2013,10,24,03,09,4.70
2013,10,24,03,10,4.70
2013,10,24,03,11,4.70
2013,10,24,03,12,4.70
2013,10,24,03,13,4.70
2013,10,24,03,14,4.70
2013,10,24,03,15,4.70
2013,10,24,03,16,4.70
2013,10,24,03,17,4.70
2013,10,24,03,18,4.70
2013,10,24,03,19,4.70
2013,10,24,03,20,4.60
2013,10,24,03,21,4.60
2013,10,24,03,22,4.60
2013,10,24,03,23,4.60
2013,10,24,03,24,4.60
2013,10,24,03,25,4.60
2013,10,24,03,26,4.60
2013,10,24,03,27,4.50
2013,10,24,03,28,4.50
2013,10,24,03,29,4.50
2013,10,24,03,30,4.50
2013,10,24,03,31,4.50
2013,10,24,03,32,4.50
2013,10,24,03,33,4.50
2013,10,24,03,34,4.50
2013,10,24,03,35,4.50
2013,10,24,03,36,4.60
2013,10,24,03,37,4.60
2013,10,24,03,38,4.60
2013,10,24,03,39,4.60
2013,10,24,03,40,4.60
2013,10,24,03,41,4.60
2013,10,24,03,42,4.60
2013,10,24,03,43,4.60
2013,10,24,03,44,4.60
2013,10,24,03,45,4.60
2013,10,24,03,46,4.60
2013,10,24,03,47,4.60
2013,10,24,03,48,4.60
2013,10,24,03,49,4.60
2013,10,24,03,50,4.60
2013,10,24,03,51,4.60
2013,10,24,03,52,4.50
2013,10,24,03,53,4.50
2013,10,24,03,54,4.50
2013,10,24,03,55,4.50
2013,10,24,03,56,4.50
2013,10,24,03,57,4.40
2013,10,24,03,58,4.40
2013,10,24,03,59,4.40
2013,10,24,04,00,4.40
2013,10,24,04,01,4.40
2013,10,24,04,02,4.40
2013,10,24,04,03,4.40
2013,10,24,04,04,4.40
2013,10,24,04,05,4.40
2013,10,24,04,06,4.40
2013,10,24,04,07,4.40
2013,10,24,04,08,4.40
2013,10,24,04,09,4.50
2013,10,24,04,10,4.40
2013,10,24,04,11,4.50
2013,10,24,04,12,4.50
2013,10,24,04,13,4.50
2013,10,24,04,14,4.50
2013,10,24,04,15,4.50
2013,10,24,04,16,4.50
2013,10,24,04,17,4.40
2013,10,24,04,18,4.40
2013,10,24,04,19,4.40
2013,10,24,04,20,4.40
2013,10,24,04,21,4.40
2013,10,24,04,22,4.40
2013,10,24,04,23,4.40
2013,10,24,04,24,4.40
2013,10,24,04,25,4.30
2013,10,24,04,26,4.30
2013,10,24,04,27,4.30
2013,10,24,04,28,4.30
2013,10,24,04,29,4.30
2013,10,24,04,30,4.30
2013,10,24,04,31,4.30
2013,10,24,04,32,4.30
2013,10,24,04,33,4.30
2013,10,24,04,34,4.30
2013,10,24,04,35,4.30
2013,10,24,04,36,4.30
2013,10,24,04,37,4.30
2013,10,24,04,38,4.30
2013,10,24,04,39,4.30
2013,10,24,04,40,4.30
2013,10,24,04,41,4.30
2013,10,24,04,42,4.30
2013,10,24,04,43,4.30
2013,10,24,04,44,4.30
2013,10,24,04,45,4.30
2013,10,24,04,46,4.30
2013,10,24,04,47,4.30
2013,10,24,04,48,4.30
2013,10,24,04,49,4.30
2013,10,24,04,50,4.30
2013,10,24,04,51,4.30
2013,10,24,04,52,4.30
2013,10,24,04,53,4.20
2013,10,24,04,54,4.20
2013,10,24,04,55,4.20
2013,10,24,04,56,4.20
2013,10,24,04,57,4.20
2013,10,24,04,58,4.20
2013,10,24,04,59,4.20
2013,10,24,05,00,4.20
2013,10,24,05,01,4.20
2013,10,24,05,02,4.20
2013,10,24,05,03,4.20
2013,10,24,05,04,4.20
2013,10,24,05,05,4.10
2013,10,24,05,06,4.10
2013,10,24,05,07,4.10
2013,10,24,05,08,4.10
2013,10,24,05,09,4.10
2013,10,24,05,10,4.10
2013,10,24,05,11,4.10
2013,10,24,05,12,4.10
2013,10,24,05,13,4.10
2013,10,24,05,14,4.10
2013,10,24,05,15,4.10
2013,10,24,05,16,4.10
2013,10,24,05,17,4.00
2013,10,24,05,18,4.00
2013,10,24,05,19,4.00
2013,10,24,05,20,4.00
2013,10,24,05,21,3.90
2013,10,24,05,22,3.90
2013,10,24,05,23,3.90
2013,10,24,05,24,3.90
2013,10,24,05,25,3.90
2013,10,24,05,26,3.90
2013,10,24,05,27,3.90
2013,10,24,05,28,3.90
2013,10,24,05,29,3.90
2013,10,24,05,30,3.90
2013,10,24,05,31,3.90
2013,10,24,05,32,3.90
2013,10,24,05,33,3.90
2013,10,24,05,34,3.90
2013,10,24,05,35,3.90
2013,10,24,05,36,3.90
2013,10,24,05,37,3.90
2013,10,24,05,38,3.90
2013,10,24,05,39,3.90
2013,10,24,05,40,3.90
2013,10,24,05,41,3.90
2013,10,24,05,42,3.90
2013,10,24,05,43,3.80
2013,10,24,05,44,3.80
2013,10,24,05,45,3.80
2013,10,24,05,46,3.80
2013,10,24,05,47,3.80
2013,10,24,05,48,3.80
2013,10,24,05,49,3.80
2013,10,24,05,50,3.80
2013,10,24,05,51,3.80
2013,10,24,05,52,3.80
2013,10,24,05,53,3.80
2013,10,24,05,54,3.80
2013,10,24,05,55,3.80
2013,10,24,05,56,3.80
2013,10,24,05,57,3.80
2013,10,24,05,58,3.80
2013,10,24,05,59,3.80
2013,10,24,06,00,3.80
2013,10,24,06,01,3.80
2013,10,24,06,02,3.80
2013,10,24,06,03,3.70
2013,10,24,06,04,3.70
2013,10,24,06,05,3.70
2013,10,24,06,06,3.70
2013,10,24,06,07,3.70
2013,10,24,06,08,3.70
2013,10,24,06,09,3.70
2013,10,24,06,10,3.70
2013,10,24,06,11,3.60
2013,10,24,06,12,3.60
2013,10,24,06,13,3.60
2013,10,24,06,14,3.60
2013,10,24,06,15,3.60
2013,10,24,06,16,3.60
2013,10,24,06,17,3.60
2013,10,24,06,18,3.60
2013,10,24,06,19,3.60
2013,10,24,06,20,3.50
2013,10,24,06,21,3.50
2013,10,24,06,22,3.50
2013,10,24,06,23,3.50
2013,10,24,06,24,3.40
2013,10,24,06,25,3.40
2013,10,24,06,26,3.40
2013,10,24,06,27,3.40
2013,10,24,06,28,3.40
2013,10,24,06,29,3.40
2013,10,24,06,30,3.40
2013,10,24,06,31,3.40
2013,10,24,06,32,3.40
2013,10,24,06,33,3.40
2013,10,24,06,34,3.40
2013,10,24,06,35,3.40
2013,10,24,06,36,3.40
2013,10,24,06,37,3.40
2013,10,24,06,38,3.40
2013,10,24,06,39,3.40
2013,10,24,06,40,3.40
2013,10,24,06,41,3.40
2013,10,24,06,42,3.40
2013,10,24,06,43,3.40
2013,10,24,06,44,3.40
2013,10,24,06,45,3.40
2013,10,24,06,46,3.40
2013,10,24,06,47,3.40
2013,10,24,06,48,3.40
2013,10,24,06,49,3.40
2013,10,24,06,50,3.40
2013,10,24,06,51,3.40
2013,10,24,06,52,3.40
2013,10,24,06,53,3.40
2013,10,24,06,54,3.40
2013,10,24,06,55,3.40
2013,10,24,06,56,3.40
2013,10,24,06,57,3.40
2013,10,24,06,58,3.40
2013,10,24,06,59,3.40
2013,10,24,07,00,3.40
2013,10,24,07,01,3.40
2013,10,24,07,02,3.40
2013,10,24,07,03,3.40
2013,10,24,07,04,3.40
2013,10,24,07,05,3.40
2013,10,24,07,06,3.40
2013,10,24,07,07,3.40
2013,10,24,07,08,3.40
2013,10,24,07,09,3.40
2013,10,24,07,10,3.40
2013,10,24,07,11,3.40
2013,10,24,07,12,3.30
2013,10,24,07,13,3.30
2013,10,24,07,14,3.30
2013,10,24,07,15,3.30
2013,10,24,07,16,3.30
2013,10,24,07,17,3.30
2013,10,24,07,18,3.40
2013,10,24,07,19,3.40
2013,10,24,07,20,3.40
2013,10,24,07,21,3.40
2013,10,24,07,22,3.40
2013,10,24,07,23,3.40
2013,10,24,07,24,3.40
2013,10,24,07,25,3.40
2013,10,24,07,26,3.30
2013,10,24,07,27,3.30
2013,10,24,07,28,3.30
2013,10,24,07,29,3.30
2013,10,24,07,30,3.30
2013,10,24,07,31,3.30
2013,10,24,07,32,3.30
2013,10,24,07,33,3.30
2013,10,24,07,34,3.30
2013,10,24,07,35,3.20
2013,10,24,07,36,3.20
2013,10,24,07,37,3.20
2013,10,24,07,38,3.20
2013,10,24,07,39,3.20
2013,10,24,07,40,3.20
2013,10,24,07,41,3.20
2013,10,24,07,42,3.20
2013,10,24,07,43,3.20
2013,10,24,07,44,3.20
2013,10,24,07,45,3.20
2013,10,24,12,33,16.20
2013,10,24,12,34,16.30
2013,10,24,12,35,16.30
2013,10,24,12,36,16.30
2013,10,24,12,37,16.30
2013,10,24,12,38,16.30
2013,10,24,12,39,16.40
2013,10,24,12,40,16.40
2013,10,24,12,41,16.50
2013,10,24,12,42,16.60
2013,10,24,12,43,16.60
2013,10,24,12,44,16.60
2013,10,24,12,45,16.70
2013,10,24,12,46,16.80
2013,10,24,12,47,16.80
2013,10,24,12,48,16.80
2013,10,24,12,49,16.80
2013,10,24,12,50,16.80
2013,10,24,12,51,16.80
2013,10,24,12,52,16.80
2013,10,24,12,53,16.80
2013,10,24,12,54,16.80
2013,10,24,12,55,16.80
2013,10,24,12,56,16.80
2013,10,24,12,57,16.80
2013,10,24,12,58,16.80
2013,10,24,12,59,16.80
2013,10,24,13,00,16.80
2013,10,24,13,01,16.80
2013,10,24,13,02,16.80
2013,10,24,13,03,16.80
2013,10,24,13,04,16.80
2013,10,24,13,05,16.80
2013,10,24,13,06,16.80
2013,10,24,13,07,16.90
2013,10,24,13,08,17.00
2013,10,24,13,09,17.00
2013,10,24,13,10,17.10
2013,10,24,13,11,17.10
2013,10,24,13,12,17.20
2013,10,24,13,13,17.20
2013,10,24,13,14,17.20
2013,10,24,13,15,17.10
2013,10,24,13,16,17.20
2013,10,24,13,17,17.20
2013,10,24,13,18,17.20
2013,10,24,13,19,17.20
2013,10,24,13,20,17.30
2013,10,24,13,21,17.30
2013,10,24,13,22,17.30
2013,10,24,13,23,17.20
2013,10,24,13,24,17.20
2013,10,24,13,25,17.20
2013,10,24,13,26,17.10
2013,10,24,13,27,17.10
2013,10,24,13,28,17.10
2013,10,24,13,29,17.10
2013,10,24,13,30,17.10
2013,10,24,13,31,17.00
2013,10,24,13,32,16.90
2013,10,24,13,33,16.90
2013,10,24,13,34,16.90
2013,10,24,13,35,16.90
2013,10,24,13,36,16.90
2013,10,24,13,37,16.90
2013,10,24,13,38,16.80
2013,10,24,13,39,16.80
2013,10,24,13,40,16.80
2013,10,24,13,41,16.80
2013,10,24,13,42,16.80
2013,10,24,13,43,16.80
2013,10,24,13,44,16.80
2013,10,24,13,45,16.80
2013,10,24,13,46,16.80
2013,10,24,13,47,16.80
2013,10,24,13,48,16.70
2013,10,24,13,49,16.70
2013,10,24,13,50,16.70
2013,10,24,13,51,16.70
2013,10,24,13,52,16.80
2013,10,24,13,53,16.80
2013,10,24,13,54,16.90
2013,10,24,13,55,16.90
2013,10,24,13,56,16.90
2013,10,24,13,57,16.90
2013,10,24,13,58,17.00
2013,10,24,13,59,17.00
2013,10,24,14,00,17.10
2013,10,24,14,01,17.10
2013,10,24,14,02,17.20
2013,10,24,14,03,17.30
2013,10,24,14,04,17.30
2013,10,24,14,05,17.40
2013,10,24,14,06,17.40
2013,10,24,14,07,17.40
2013,10,24,14,08,17.40
2013,10,24,14,09,17.30
2013,10,24,14,10,17.30
2013,10,24,14,11,17.30
2013,10,24,14,12,17.30
2013,10,24,14,13,17.30
2013,10,24,14,14,17.40
2013,10,24,14,15,17.40
2013,10,24,14,16,17.40
2013,10,24,14,17,17.40
2013,10,24,14,18,17.40
2013,10,24,14,19,17.30
2013,10,24,14,20,17.30
2013,10,24,14,21,17.30
2013,10,24,14,22,17.20
2013,10,24,14,23,17.20
2013,10,24,14,24,17.20
2013,10,24,14,25,17.20
2013,10,24,14,26,17.10
2013,10,24,14,27,17.10
2013,10,24,14,28,17.10
2013,10,24,14,29,17.10
2013,10,24,14,30,17.10
2013,10,24,14,31,17.10
2013,10,24,14,32,17.10
2013,10,24,14,33,17.10
2013,10,24,14,34,17.10
2013,10,24,14,35,17.10
2013,10,24,14,36,17.10
2013,10,24,14,37,17.10
2013,10,24,14,38,17.10
2013,10,24,14,39,17.10
2013,10,24,14,40,17.00
2013,10,24,14,41,17.00
2013,10,24,14,42,16.90
2013,10,24,14,43,16.80
2013,10,24,14,44,16.80
2013,10,24,14,45,16.80
2013,10,24,14,46,16.80
2013,10,24,14,47,16.70
2013,10,24,14,48,16.70
2013,10,24,14,49,16.70
2013,10,24,14,50,16.60
2013,10,24,14,51,16.60
2013,10,24,14,52,16.60
2013,10,24,14,53,16.70
2013,10,24,14,54,16.70
2013,10,24,14,55,16.70
2013,10,24,14,56,16.80
2013,10,24,14,57,16.80
2013,10,24,14,58,16.80
2013,10,24,14,59,16.80
2013,10,24,15,00,16.70
2013,10,24,15,01,16.70
2013,10,24,15,02,16.70
2013,10,24,15,03,16.70
2013,10,24,15,04,16.80
2013,10,24,15,05,16.80
2013,10,24,15,06,16.90
2013,10,24,15,07,16.90
2013,10,24,15,08,17.00
2013,10,24,15,09,17.00
2013,10,24,15,10,17.00
2013,10,24,15,11,16.90
2013,10,24,15,12,16.90
2013,10,24,15,13,16.90
2013,10,24,15,14,16.90
2013,10,24,15,15,16.90
2013,10,24,15,16,17.00
2013,10,24,15,17,17.00
2013,10,24,15,18,17.00
2013,10,24,15,19,17.10
2013,10,24,15,20,17.10
2013,10,24,15,21,17.00
2013,10,24,15,22,17.00
2013,10,24,15,23,16.90
2013,10,24,15,24,16.90
2013,10,24,15,25,16.90
2013,10,24,15,26,16.90
2013,10,24,15,27,16.90
2013,10,24,15,28,16.90
2013,10,24,15,29,17.00
2013,10,24,15,30,17.00
2013,10,24,15,31,17.10
2013,10,24,15,32,17.10
2013,10,24,15,33,17.10
2013,10,24,15,34,17.20
2013,10,24,15,35,17.20
2013,10,24,15,36,17.30
2013,10,24,15,37,17.30
2013,10,24,15,38,17.30
2013,10,24,15,39,17.30
2013,10,24,15,40,17.40
2013,10,24,15,41,17.40
2013,10,24,15,42,17.50
2013,10,24,15,43,17.50
2013,10,24,15,44,17.60
2013,10,24,15,45,17.60
2013,10,24,15,46,17.60
2013,10,24,15,47,17.70
2013,10,24,15,48,17.70
2013,10,24,15,49,17.70
2013,10,24,15,50,17.70
2013,10,24,15,51,17.70
2013,10,24,15,52,17.80
2013,10,24,15,53,17.80
2013,10,24,15,54,17.80
2013,10,24,15,55,17.80
2013,10,24,15,56,17.80
2013,10,24,15,57,17.80
2013,10,24,15,58,17.80
2013,10,24,15,59,17.80
2013,10,24,16,00,17.80
2013,10,24,16,01,17.80
2013,10,24,16,02,17.80
2013,10,24,16,03,17.70
2013,10,24,16,04,17.70
2013,10,24,16,05,17.60
2013,10,24,16,06,17.60
2013,10,24,16,07,17.60
2013,10,24,16,08,17.60
2013,10,24,16,09,17.60
2013,10,24,16,10,17.50
2013,10,24,16,11,17.40
2013,10,24,16,12,17.30
2013,10,24,16,13,17.30
2013,10,24,16,14,17.20
2013,10,24,16,15,17.20
2013,10,24,16,16,17.20
2013,10,24,16,17,17.10
2013,10,24,16,18,17.10
2013,10,24,16,19,17.10
2013,10,24,16,20,17.10
2013,10,24,16,21,17.20
2013,10,24,16,22,17.20
2013,10,24,16,23,17.20
2013,10,24,16,24,17.30
2013,10,24,16,25,17.30
2013,10,24,16,26,17.20
2013,10,24,16,27,17.30
2013,10,24,16,28,17.30
2013,10,24,16,29,17.30
2013,10,24,16,30,17.30
2013,10,24,16,31,17.20
2013,10,24,16,32,17.20
2013,10,24,16,33,17.20
2013,10,24,16,34,17.10
2013,10,24,16,35,17.10
2013,10,24,16,36,17.10
2013,10,24,16,37,17.10
2013,10,24,16,38,17.10
2013,10,24,16,39,17.00
2013,10,24,16,40,17.00
2013,10,24,16,41,17.00
2013,10,24,16,42,17.00
2013,10,24,16,43,16.90
2013,10,24,16,44,16.90
2013,10,24,16,45,16.90
2013,10,24,16,46,16.90
2013,10,24,16,47,16.90
2013,10,24,16,48,16.80
2013,10,24,16,49,16.80
2013,10,24,16,50,16.80
2013,10,24,16,51,16.80
2013,10,24,16,52,16.80
2013,10,24,16,53,16.80
2013,10,24,16,54,16.70
2013,10,24,16,55,16.70
2013,10,24,16,56,16.70
2013,10,24,16,57,16.70
2013,10,24,16,58,16.70
2013,10,24,16,59,16.70
2013,10,24,17,00,16.60
2013,10,24,17,01,16.60
2013,10,24,17,02,16.60
2013,10,24,17,03,16.60
2013,10,24,17,04,16.50
2013,10,24,17,05,16.50
2013,10,24,17,06,16.50
2013,10,24,17,07,16.50
2013,10,24,17,08,16.40
2013,10,24,17,09,16.40
2013,10,24,17,10,16.40
2013,10,24,17,11,16.40
2013,10,24,17,12,16.30
2013,10,24,17,13,16.30
2013,10,24,17,14,16.30
2013,10,24,17,15,16.30
2013,10,24,17,16,16.30
2013,10,24,17,17,16.30
2013,10,24,17,18,16.30
2013,10,24,17,19,16.30
2013,10,24,17,20,16.20
2013,10,24,17,21,16.20
2013,10,24,17,22,16.20
2013,10,24,17,23,16.10
2013,10,24,17,24,16.10
2013,10,24,17,25,16.00
2013,10,24,17,26,15.90
2013,10,24,17,27,15.80
2013,10,24,17,28,15.70
2013,10,24,17,29,15.60
2013,10,24,17,30,15.50
2013,10,24,17,31,15.40
2013,10,24,17,32,15.30
2013,10,24,17,33,15.20
2013,10,24,17,34,15.20
2013,10,24,17,35,15.10
2013,10,24,17,36,15.00
2013,10,24,17,37,15.00
2013,10,24,17,38,15.00
2013,10,24,17,39,14.90
2013,10,24,17,40,14.80
2013,10,24,17,41,14.80
2013,10,24,17,42,14.70
2013,10,24,17,43,14.70
2013,10,24,17,44,14.60
2013,10,24,17,45,14.60
2013,10,24,17,46,14.50
2013,10,24,17,47,14.50
2013,10,24,17,48,14.40
2013,10,24,17,49,14.40
2013,10,24,17,50,14.30
2013,10,24,17,51,14.30
2013,10,24,17,52,14.30
2013,10,24,17,53,14.30
2013,10,24,17,54,14.20
2013,10,24,17,55,14.20
2013,10,24,17,56,14.20
2013,10,24,17,57,14.20
2013,10,24,17,58,14.10
2013,10,24,17,59,14.10
2013,10,24,18,00,14.10
2013,10,24,18,01,14.00
2013,10,24,18,02,14.00
2013,10,24,18,03,14.00
2013,10,24,18,04,13.90
2013,10,24,18,05,13.90
2013,10,24,18,06,13.90
2013,10,24,18,07,13.80
2013,10,24,18,08,13.80
2013,10,24,18,09,13.70
2013,10,24,18,10,13.70
2013,10,24,18,11,13.60
2013,10,24,18,12,13.50
2013,10,24,18,13,13.50
2013,10,24,18,14,13.40
2013,10,24,18,15,13.30
2013,10,24,18,16,13.30
2013,10,24,18,17,13.30
2013,10,24,18,18,13.20
2013,10,24,18,19,13.20
2013,10,24,18,20,13.20
2013,10,24,18,21,13.10
2013,10,24,18,22,13.10
2013,10,24,18,23,13.00
2013,10,24,18,24,12.90
2013,10,24,18,25,12.90
2013,10,24,18,26,12.80
2013,10,24,18,27,12.80
2013,10,24,18,28,12.80
2013,10,24,18,29,12.70
2013,10,24,18,30,12.60
2013,10,24,18,31,12.60
2013,10,24,18,32,12.60
2013,10,24,18,33,12.50
2013,10,24,18,34,12.50
2013,10,24,18,35,12.40
2013,10,24,18,36,12.40
2013,10,24,18,37,12.40
2013,10,24,18,38,12.30
2013,10,24,18,39,12.30
2013,10,24,18,40,12.30
2013,10,24,18,41,12.20
2013,10,24,18,42,12.20
2013,10,24,18,43,12.20
2013,10,24,18,44,12.20
2013,10,24,18,45,12.10
2013,10,24,18,46,12.10
2013,10,24,18,47,12.10
2013,10,24,18,48,12.10
2013,10,24,18,49,12.00
2013,10,24,18,50,12.00
2013,10,24,18,51,12.00
2013,10,24,18,52,11.90
2013,10,24,18,53,11.90
2013,10,24,18,54,11.90
2013,10,24,18,55,11.90
2013,10,24,18,56,11.80
2013,10,24,18,57,11.80
2013,10,24,18,58,11.80
2013,10,24,18,59,11.80
2013,10,24,19,00,11.70
2013,10,24,19,01,11.70
2013,10,24,19,02,11.70
2013,10,24,19,03,11.60
2013,10,24,19,04,11.60
2013,10,24,19,05,11.60
2013,10,24,19,06,11.60
2013,10,24,19,07,11.60
2013,10,24,19,08,11.50
2013,10,24,19,09,11.50
2013,10,24,19,10,11.50
2013,10,24,19,11,11.40
2013,10,24,19,12,11.40
2013,10,24,19,13,11.40
2013,10,24,19,14,11.40
2013,10,24,19,15,11.30
2013,10,24,19,16,11.30
2013,10,24,19,17,11.30
2013,10,24,19,18,11.30
2013,10,24,19,19,11.20
2013,10,24,19,20,11.20
2013,10,24,19,21,11.20
2013,10,24,19,22,11.20
2013,10,24,19,23,11.10
2013,10,24,19,24,11.10
2013,10,24,19,25,11.10
2013,10,24,19,26,11.10
2013,10,24,19,27,11.10
2013,10,24,19,28,11.00
2013,10,24,19,29,11.00
2013,10,24,19,30,11.00
2013,10,24,19,31,10.90
2013,10,24,19,32,10.90
2013,10,24,19,33,10.90
2013,10,24,19,34,10.90
2013,10,24,19,35,10.90
2013,10,24,19,36,10.90
2013,10,24,19,37,10.90
2013,10,24,19,38,10.80
2013,10,24,19,39,10.80
2013,10,24,19,40,10.80
2013,10,24,19,41,10.80
2013,10,24,19,42,10.80
2013,10,24,19,43,10.80
2013,10,24,19,44,10.80
2013,10,24,19,45,10.80
2013,10,24,19,46,10.80
2013,10,24,19,47,10.80
2013,10,24,19,48,10.80
2013,10,24,19,49,10.80
2013,10,24,19,50,10.70
2013,10,24,19,51,10.70
2013,10,24,19,52,10.70
2013,10,24,19,53,10.70
2013,10,24,19,54,10.70
2013,10,24,19,55,10.70
2013,10,24,19,56,10.70
2013,10,24,19,57,10.60
2013,10,24,19,58,10.60
2013,10,24,19,59,10.60
2013,10,24,20,00,10.60
2013,10,24,20,01,10.60
2013,10,24,20,02,10.50
2013,10,24,20,03,10.50
2013,10,24,20,04,10.40
2013,10,24,20,05,10.40
2013,10,24,20,06,10.40
2013,10,24,20,07,10.40
2013,10,24,20,08,10.30
2013,10,24,20,09,10.30
2013,10,24,20,10,10.30
2013,10,24,20,11,10.20
2013,10,24,20,12,10.20
2013,10,24,20,13,10.20
2013,10,24,20,14,10.20
2013,10,24,20,15,10.20
2013,10,24,20,16,10.10
2013,10,24,20,17,10.10
2013,10,24,20,18,10.00
2013,10,24,20,19,9.90
2013,10,24,20,20,9.90
2013,10,24,20,21,9.90
2013,10,24,20,22,9.80
2013,10,24,20,23,9.80
2013,10,24,20,24,9.80
2013,10,24,20,25,9.80
2013,10,24,20,26,9.80
2013,10,24,20,27,9.70
2013,10,24,20,28,9.70
2013,10,24,20,29,9.70
2013,10,24,20,30,9.70
2013,10,24,20,31,9.70
2013,10,24,20,32,9.60
2013,10,24,20,33,9.60
2013,10,24,20,34,9.60
2013,10,24,20,35,9.60
2013,10,24,20,36,9.60
2013,10,24,20,37,9.60
2013,10,24,20,38,9.60
2013,10,24,20,39,9.60
2013,10,24,20,40,9.60
2013,10,24,20,41,9.60
2013,10,24,20,42,9.50
2013,10,24,20,43,9.50
2013,10,24,20,44,9.50
2013,10,24,20,45,9.40
2013,10,24,20,46,9.40
2013,10,24,20,47,9.40
2013,10,24,20,48,9.30
2013,10,24,20,49,9.30
2013,10,24,20,50,9.30
2013,10,24,20,51,9.30
2013,10,24,20,52,9.20
2013,10,24,20,53,9.20
2013,10,24,20,54,9.20
2013,10,24,20,55,9.20
2013,10,24,20,56,9.20
2013,10,24,20,57,9.20
2013,10,24,20,58,9.10
2013,10,24,20,59,9.10
2013,10,24,21,00,9.10
2013,10,24,21,01,9.10
2013,10,24,21,02,9.10
2013,10,24,21,03,9.00
2013,10,24,21,04,9.00
2013,10,24,21,05,9.00
2013,10,24,21,06,9.00
2013,10,24,21,07,9.00
2013,10,24,21,08,9.00
2013,10,24,21,09,9.00
2013,10,24,21,10,8.90
2013,10,24,21,11,8.90
2013,10,24,21,12,8.90
2013,10,24,21,13,9.00
2013,10,24,21,14,9.00
2013,10,24,21,15,9.00
2013,10,24,21,16,9.00
2013,10,24,21,17,9.00
2013,10,24,21,18,8.90
2013,10,24,21,19,8.90
2013,10,24,21,20,8.90
2013,10,24,21,21,8.90
2013,10,24,21,22,8.90
2013,10,24,21,23,8.90
2013,10,24,21,24,8.90
2013,10,24,21,25,8.90
2013,10,24,21,26,8.90
2013,10,24,21,27,8.80
2013,10,24,21,28,8.80
2013,10,24,21,29,8.80
2013,10,24,21,30,8.80
2013,10,24,21,31,8.90
2013,10,24,21,32,8.90
2013,10,24,21,33,8.90
2013,10,24,21,34,8.90
2013,10,24,21,35,8.90
2013,10,24,21,36,8.90
2013,10,24,21,37,9.00
2013,10,24,21,38,8.90
2013,10,24,21,39,9.00
2013,10,24,21,40,9.00
2013,10,24,21,41,8.90
2013,10,24,21,42,8.90
2013,10,24,21,43,8.90
2013,10,24,21,44,8.90
2013,10,24,21,45,8.90
2013,10,24,21,46,8.90
2013,10,24,21,47,8.90
2013,10,24,21,48,8.90
2013,10,24,21,49,8.90
2013,10,24,21,50,8.90
2013,10,24,21,51,8.90
2013,10,24,21,52,8.90
2013,10,24,21,53,8.90
2013,10,24,21,54,8.90
2013,10,24,21,55,8.80
2013,10,24,21,56,8.80
2013,10,24,21,57,8.80
2013,10,24,21,58,8.80
2013,10,24,21,59,8.70
2013,10,24,22,00,8.70
2013,10,24,22,01,8.70
2013,10,24,22,02,8.70
2013,10,24,22,03,8.70
2013,10,24,22,04,8.70
2013,10,24,22,05,8.70
2013,10,24,22,06,8.70
2013,10,24,22,07,8.70
2013,10,24,22,08,8.70
2013,10,24,22,09,8.70
2013,10,24,22,10,8.70
2013,10,24,22,11,8.70
2013,10,24,22,12,8.70
2013,10,24,22,13,8.70
2013,10,24,22,14,8.70
2013,10,24,22,15,8.80
2013,10,24,22,16,8.80
2013,10,24,22,17,8.80
2013,10,24,22,18,8.80
2013,10,24,22,19,8.80
2013,10,24,22,20,8.80
2013,10,24,22,21,8.80
2013,10,24,22,22,8.80
2013,10,24,22,23,8.80
2013,10,24,22,24,8.80
2013,10,24,22,25,8.80
2013,10,24,22,26,8.80
2013,10,24,22,27,8.80
2013,10,24,22,28,8.80
2013,10,24,22,29,8.80
2013,10,24,22,30,8.80
2013,10,24,22,31,8.80
2013,10,24,22,32,8.80